Baker City Municipal Airport Baker City US
ICAO: KBKE
IATA: BKE
Category: Medium
Scheduled Services: No

Elevation: 3373 ft
TransAlt. 18000 ft.

Airport Communications:
ASOS:134.275
SALT LAKE CITY CNTR:128.05
CTAF/UNICOM:123

KBKE Zoom In..

Runways:

(A) RW 08 length 3670 ft width 140 ft
---- / hdg 81

(B) RW 13 length 5085 ft width 100 ft
---- / hdg 126

(C) RW 17 length 4359 ft width 75 ft
---- / hdg 165

(D) RW 26 length 3670 ft width 140 ft
---- / hdg 261

(E) RW 31 length 5085 ft width 100 ft
---- / hdg 306

(F) RW 35 length 4359 ft width 75 ft
---- / hdg 345

Location; KBKE
Day. 23 / Time. 09.53 Zulu
* Altimeter: 30.22
* Temperature: 11° c. 51.8°f.
* Wind from: 000° Speed 00 kn.
Dewpoint: 06° c.
Visibility: 10 Statute Miles.
Clouds: Clear (automated report).

KBKE 230953Z AUTO 00000KT 10SM CLR 11/06 A3022 RMK AO2 SLP209 T01060056


Wind - Calm.

 
 
jpsmedia.com for Web Design worldairports.se 2018   terms of use